This demonstration page uses our WeatherBlox Daily Observations layout. Learn more.

39.92423, -83.80882

Hourly Observations for October 26, 2020

Temp ( °F °C ) Dew Point ( °F °C ) Humidity (%) Winds ( mph kmh ) Pressure ( in mb ) Visibility ( mi km ) Precip ( " mm )
12:56 am 00:56 Cloudy 48 8.9 44 6.7 86 86 SE 3 6 30.06 1018 10 16.0934 0 0
1:56 am 01:56 Cloudy 47 8.3 45 7.2 93 93 E 3 6 30.06 1018 10 16.0934 0 0
2:56 am 02:56 Cloudy 47 8.3 45 7.2 93 93 Calm 30.07 1018 10 16.0934 0 0
3:03 am 03:03 Cloudy 46 8 46 8 100 100 Calm 30.07 1018 10 16.0934 0 0
3:56 am 03:56 Cloudy 47 8.3 46 7.8 97 97 Calm 30.07 1018 10 16.0934 0.001 0.001
4:56 am 04:56 Cloudy with Light Rain 47 8.3 47 8.3 100 100 Calm 30.07 1018 8 12.87472 0.001 0.001
5:56 am 05:56 Cloudy 47 8.3 47 8.3 100 100 NNW 5 7 30.08 1019 10 16.0934 0.001 0.001
6:56 am 06:56 Cloudy with Light Rain 45 7.2 45 7.2 100 100 N 7 11 30.11 1020 6 9.65604 0.001 0.001
7:35 am 07:35 Cloudy with Light Rain 45 7 45 7 100 100 N 5 7 30.12 1020 6 9.65604 0.001 0.001
7:56 am 07:56 Cloudy with Light Rain 45 7.2 45 7.2 100 100 N 5 7 30.11 1020 6 9.65604 0.001 0.001
8:05 am 08:05 Cloudy 45 7 45 7 100 100 N 3 6 30.12 1020 7 11.26538 0.001 0.001
8:20 am 08:20 Cloudy 45 7 45 7 100 100 Calm 30.12 1020 8 12.87472 0.001 0.001
8:27 am 08:27 Cloudy 45 7 45 7 100 100 NE 3 6 30.12 1020 10 16.0934 0.001 0.001
8:34 am 08:34 Cloudy 45 7 45 7 100 100 Calm 30.13 1020 10 16.0934 0.001 0.001
8:45 am 08:45 Cloudy 45 7 45 7 100 100 Calm 30.14 1021 10 16.0934 0.001 0.001
8:56 am 08:56 Cloudy 45 7.2 45 7.2 100 100 NNE 3 6 30.13 1020 10 16.0934 0.001 0.001
9:24 am 09:24 Cloudy 46 8 46 8 100 100 N 5 7 30.14 1021 10 16.0934 0 0
9:56 am 09:56 Cloudy 46 7.8 46 7.8 100 100 N 3 6 30.15 1021 10 16.0934 0 0
10:13 am 10:13 Cloudy 46 8 46 8 100 100 Calm 30.14 1021 10 16.0934 0 0
10:56 am 10:56 Cloudy 48 8.9 47 8.3 96 96 W 3 6 30.15 1021 10 16.0934 0.01 0.254
11:56 am 11:56 Cloudy with Mist and Fog 48 8.9 47 8.3 96 96 WNW 7 11 30.16 1021 4 6.43736 0 0
12:52 pm 12:52 Cloudy with Light Rain 46 8 46 8 100 100 NW 10 17 30.17 1022 2 3.21868 0.001 0.001
12:56 pm 12:56 Cloudy with Light Rain 46 7.8 46 7.8 100 100 NW 10 17 30.17 1022 2.5 4.02335 0.001 0.001
1:03 pm 13:03 Cloudy with Light Rain 46 8 46 8 100 100 NNW 10 17 30.17 1022 2 3.21868 0.001 0.001
1:08 pm 13:08 Cloudy with Mist and Fog 46 8 46 8 100 100 NW 8 13 30.17 1022 3 4.82802 0.001 0.001
1:25 pm 13:25 Cloudy with Mist and Fog 46 8 46 8 100 100 NNW 8 13 30.18 1022 3 4.82802 0.001 0.001
1:47 pm 13:47 Cloudy 48 9 46 8 94 94 NNW 8 13 30.17 1022 10 16.0934 0.001 0.001
1:56 pm 13:56 Cloudy 47 8.3 46 7.8 97 97 NW 9 15 30.17 1022 7 11.26538 0.001 0.001
2:28 pm 14:28 Cloudy 48 9 45 7 87 87 NNW 7 11 30.18 1022 10 16.0934 0 0
2:56 pm 14:56 Cloudy 48 8.9 44 6.7 86 86 NW 7 11 30.16 1022 10 16.0934 0 0
3:56 pm 15:56 Cloudy 47 8.3 44 6.7 90 90 NNW 8 13 30.18 1022 10 16.0934 0 0
4:29 pm 16:29 Cloudy 46 8 45 7 93 93 NW 10 17 30.18 1022 10 16.0934 0 0
4:45 pm 16:45 Cloudy 46 8 45 7 93 93 N 9 15 30.18 1022 10 16.0934 0 0
4:56 pm 16:56 Cloudy 46 7.8 44 6.7 93 93 N 8 13 30.19 1022 10 16.0934 0 0
5:53 pm 17:53 Cloudy 46 8 45 7 93 93 N 8 13 30.21 1023 10 16.0934 0 0
5:56 pm 17:56 Cloudy 46 7.8 44 6.7 93 93 NNW 6 9 30.2 1023 10 16.0934 0 0
6:14 pm 18:14 Cloudy 46 8 45 7 93 93 N 9 15 30.19 1022 10 16.0934 0 0
6:41 pm 18:41 Cloudy with Light Rain 45 7 45 7 100 100 NNW 7 11 30.25 1025 7 11.26538 0.001 0.001
6:56 pm 18:56 Cloudy with Light Rain 45 7.2 45 7.2 100 100 N 5 7 30.24 1024 7 11.26538 0.001 0.001
7:18 pm 19:18 Cloudy with Light Rain 45 7 45 7 100 100 N 5 7 30.24 1024 7 11.26538 0.001 0.001
7:56 pm 19:56 Cloudy with Light Rain 44 6.7 44 6.7 100 100 N 5 7 30.25 1024 8 12.87472 0.001 0.001
8:25 pm 20:25 Cloudy with Mist and Fog 45 7 45 7 100 100 Calm 30.27 1025 6 9.65604 0.001 0.001
8:56 pm 20:56 Cloudy with Mist and Fog 44 6.7 44 6.7 100 100 N 3 6 30.25 1024 6 9.65604 0.001 0.001
9:56 pm 21:56 Cloudy with Light Rain 44 6.7 44 6.7 100 100 N 5 7 30.26 1025 5 8.0467 0.001 0.001
10:38 pm 22:38 Cloudy with Light Rain 45 7 45 7 100 100 N 6 9 30.27 1025 6 9.65604 0.001 0.001
10:56 pm 22:56 Cloudy with Light Rain 44 6.7 44 6.7 100 100 NNW 5 7 30.29 1026 6 9.65604 0.001 0.001
11:13 pm 23:13 Cloudy with Light Rain 45 7 45 7 100 100 N 5 7 30.29 1026 6 9.65604 0.001 0.001
11:34 pm 23:34 Cloudy with Light Rain 45 7 45 7 100 100 N 6 9 30.28 1026 6 9.65604 0.001 0.001
11:48 pm 23:48 Cloudy with Light Rain 45 7 45 7 100 100 N 6 9 30.29 1026 6 9.65604 0.001 0.001
11:56 pm 23:56 Cloudy with Light Rain 44 6.7 44 6.7 100 100 N 5 7 30.28 1026 7 11.26538 0.001 0.001

Powered by AerisWeather